{"data":{"norad_id":56185,"epoch":"2026-05-25T05:26:52.168416Z","epoch_age_seconds":52504,"freshness":"FRESH","line1":"1 56185U 23054H   26145.22699269  .00118059  00000+0  48217-3 0  9990","line2":"2 56185  97.2958  61.9376 0007814 115.7398 244.4680 15.85756289175437","mean_motion":15.85756289,"eccentricity":0.0007814,"inclination_deg":97.2958,"raan_deg":61.9376,"arg_perigee_deg":115.7398,"mean_anomaly_deg":244.468,"bstar":0.00048217,"rev_number":17543,"period_min":90.808405427046,"perigee_km":308.96666815501,"apogee_km":319.42544625681,"semimajor_km":6692.3330572059,"source":"CELESTRAK","updated_at":"2026-05-25T13:37:59.396011Z"}}